N21SC KOLV-KOLV

Flight info

Callsign N21SC
Flight time 0h 45m
Altitude 3500
Route VFR FF
Aircraft C172/L-V/C

Departure

Time 2026-05-07 21:11
Airport Olive Branch Airport (KOLV)

Arrival

Time 2026-05-07 21:56
Airport Olive Branch Airport (KOLV)
Time Latitude Longitude Altitude Speed Heading
2026-05-07 20:56 34.97662 -89.78942 402 ft 0 kts 182°
2026-05-07 21:04 34.97659 -89.78942 402 ft 1 kts 181°
2026-05-07 21:04 34.97635 -89.78914 401 ft 7 kts 161°
2026-05-07 21:05 34.97608 -89.78872 400 ft 8 kts 95°
2026-05-07 21:05 34.97584 -89.78818 399 ft 8 kts 176°
2026-05-07 21:05 34.97509 -89.78816 396 ft 12 kts 179°
2026-05-07 21:05 34.97413 -89.78814 394 ft 15 kts 181°
2026-05-07 21:06 34.97301 -89.78814 394 ft 16 kts 180°
2026-05-07 21:06 34.97196 -89.78813 400 ft 13 kts 180°
2026-05-07 21:06 34.97107 -89.78815 405 ft 13 kts 180°
2026-05-07 21:06 34.97055 -89.78771 408 ft 3 kts 89°
2026-05-07 21:07 34.97055 -89.78770 408 ft 0 kts 89°
2026-05-07 21:09 34.97055 -89.78759 408 ft 5 kts 90°
2026-05-07 21:10 34.97072 -89.78677 407 ft 12 kts 349°
2026-05-07 21:10 34.97200 -89.78678 399 ft 36 kts 356°
2026-05-07 21:10 34.97639 -89.78689 446 ft 76 kts
2026-05-07 21:10 34.98144 -89.78694 701 ft 72 kts 359°
2026-05-07 21:11 34.98660 -89.78702 914 ft 75 kts
2026-05-07 21:11 34.99192 -89.78688 1110 ft 78 kts 358°
2026-05-07 21:11 34.99931 -89.77905 1407 ft 89 kts 82°
2026-05-07 21:12 34.99979 -89.77121 1434 ft 92 kts 84°
2026-05-07 21:12 34.99997 -89.76326 1468 ft 94 kts 88°
2026-05-07 21:12 34.99966 -89.75536 1505 ft 94 kts 91°
2026-05-07 21:12 34.99931 -89.74723 1523 ft 96 kts 91°
2026-05-07 21:13 34.99895 -89.73901 1534 ft 98 kts 90°
2026-05-07 21:13 34.99866 -89.73055 1541 ft 99 kts 90°
2026-05-07 21:13 34.99846 -89.72211 1520 ft 100 kts 88°
2026-05-07 21:13 34.99854 -89.71363 1523 ft 99 kts 88°
2026-05-07 21:14 34.99864 -89.70553 1762 ft 89 kts 85°
2026-05-07 21:14 34.99872 -89.69812 1982 ft 88 kts 87°
2026-05-07 21:14 34.99842 -89.69067 2186 ft 87 kts 89°
2026-05-07 21:14 34.99805 -89.68319 2369 ft 89 kts 91°
2026-05-07 21:15 34.99752 -89.67559 2562 ft 90 kts 90°
2026-05-07 21:15 34.99696 -89.66797 2744 ft 90 kts 89°
2026-05-07 21:15 34.99675 -89.66025 2923 ft 91 kts 87°
2026-05-07 21:15 34.99663 -89.65205 2952 ft 102 kts 88°
2026-05-07 21:16 34.99641 -89.64336 2920 ft 103 kts 87°
2026-05-07 21:16 34.99635 -89.63457 2894 ft 103 kts 86°
2026-05-07 21:16 34.99631 -89.62574 2881 ft 103 kts 86°
2026-05-07 21:16 34.99625 -89.61716 2893 ft 100 kts 86°
2026-05-07 21:17 34.99624 -89.60860 2878 ft 101 kts 85°
2026-05-07 21:17 34.99628 -89.59998 2878 ft 100 kts 85°
2026-05-07 21:17 34.99573 -89.59148 2876 ft 102 kts 102°
2026-05-07 21:17 34.99281 -89.58356 2869 ft 104 kts 114°
2026-05-07 21:18 34.98950 -89.57576 2979 ft 100 kts 113°
2026-05-07 21:18 34.98642 -89.56816 3083 ft 99 kts 110°
2026-05-07 21:18 34.98361 -89.56067 3213 ft 96 kts 108°
2026-05-07 21:18 34.98109 -89.55319 3384 ft 94 kts 105°
2026-05-07 21:19 34.97895 -89.54542 3496 ft 99 kts 98°
2026-05-07 21:19 34.97726 -89.53691 3461 ft 105 kts 97°
2026-05-07 21:19 34.97568 -89.52838 3486 ft 103 kts 97°
2026-05-07 21:19 34.97424 -89.51977 3493 ft 102 kts 96°
2026-05-07 21:20 34.97286 -89.51130 3514 ft 102 kts 97°
2026-05-07 21:20 34.97111 -89.50272 3519 ft 103 kts 101°
2026-05-07 21:20 34.97051 -89.49435 3526 ft 98 kts 65°
2026-05-07 21:20 34.97548 -89.49005 3546 ft 86 kts 354°
2026-05-07 21:21 34.97951 -89.49490 3453 ft 101 kts 275°
2026-05-07 21:21 34.97519 -89.50092 3501 ft 104 kts 188°
2026-05-07 21:21 34.96946 -89.49662 3495 ft 101 kts 104°
2026-05-07 21:21 34.96962 -89.48841 3516 ft 97 kts 80°
2026-05-07 21:22 34.96930 -89.48023 3516 ft 103 kts 114°
2026-05-07 21:22 34.96308 -89.47783 3531 ft 99 kts 213°
2026-05-07 21:22 34.96107 -89.48439 3547 ft 87 kts 303°
2026-05-07 21:22 34.96615 -89.48608 3579 ft 85 kts 27°
2026-05-07 21:23 34.96782 -89.47892 3545 ft 100 kts 90°
2026-05-07 21:23 34.96775 -89.47038 3562 ft 100 kts 82°
2026-05-07 21:23 34.96802 -89.46187 3586 ft 100 kts 83°
2026-05-07 21:23 34.96809 -89.45341 3564 ft 102 kts 85°
2026-05-07 21:24 34.96798 -89.44476 3565 ft 100 kts 86°
2026-05-07 21:24 34.96765 -89.43684 3578 ft 87 kts 86°
2026-05-07 21:24 34.96726 -89.43008 3582 ft 75 kts 86°
2026-05-07 21:24 34.96669 -89.42381 3558 ft 72 kts 88°
2026-05-07 21:25 34.96619 -89.41777 3558 ft 70 kts 84°
2026-05-07 21:25 34.96583 -89.41167 3564 ft 73 kts 83°
2026-05-07 21:25 34.96566 -89.40541 3595 ft 73 kts 82°
2026-05-07 21:25 34.96529 -89.39912 3611 ft 75 kts 88°
2026-05-07 21:26 34.96457 -89.39275 3633 ft 75 kts 91°
2026-05-07 21:26 34.96382 -89.38638 3629 ft 76 kts 90°
2026-05-07 21:26 34.96296 -89.37994 3621 ft 77 kts 91°
2026-05-07 21:26 34.96217 -89.37275 3554 ft 95 kts 89°
2026-05-07 21:27 34.96167 -89.36430 3527 ft 101 kts 89°
2026-05-07 21:27 34.96121 -89.35570 3525 ft 101 kts 87°
2026-05-07 21:27 34.96089 -89.34734 3515 ft 93 kts 89°
2026-05-07 21:27 34.96040 -89.33975 3507 ft 83 kts 88°
2026-05-07 21:28 34.96028 -89.33303 3489 ft 76 kts 82°
2026-05-07 21:28 34.96032 -89.32654 3463 ft 75 kts 81°
2026-05-07 21:28 34.96075 -89.32032 3456 ft 74 kts 79°
2026-05-07 21:28 34.96104 -89.31400 3459 ft 76 kts 79°
2026-05-07 21:29 34.96095 -89.30745 3487 ft 77 kts 88°
2026-05-07 21:29 34.96047 -89.30092 3513 ft 77 kts 87°
2026-05-07 21:29 34.95998 -89.29398 3499 ft 88 kts 88°
2026-05-07 21:29 34.95966 -89.28616 3526 ft 95 kts 90°
2026-05-07 21:30 34.95900 -89.27778 3523 ft 102 kts 93°
2026-05-07 21:30 34.95786 -89.26917 3557 ft 99 kts 89°
2026-05-07 21:30 34.95958 -89.26160 3572 ft 93 kts 43°
2026-05-07 21:30 34.96523 -89.25926 3574 ft 88 kts 349°
2026-05-07 21:31 34.97120 -89.25998 3623 ft 87 kts 11°
2026-05-07 21:31 34.97574 -89.25505 3624 ft 97 kts 66°
2026-05-07 21:31 34.97617 -89.24638 3595 ft 103 kts 90°
2026-05-07 21:31 34.97532 -89.23789 3626 ft 101 kts 94°
2026-05-07 21:32 34.97248 -89.23003 3625 ft 106 kts 134°
2026-05-07 21:32 34.96576 -89.22684 3606 ft 107 kts 189°
2026-05-07 21:32 34.96004 -89.23174 3586 ft 99 kts 250°
2026-05-07 21:32 34.95902 -89.23984 3561 ft 96 kts 271°
2026-05-07 21:33 34.95871 -89.24791 3564 ft 94 kts 273°
2026-05-07 21:33 34.95862 -89.25570 3487 ft 91 kts 275°
2026-05-07 21:33 34.95857 -89.26344 3365 ft 90 kts 275°
2026-05-07 21:33 34.95859 -89.27113 3232 ft 91 kts 272°
2026-05-07 21:34 34.95828 -89.27881 3103 ft 91 kts 269°
2026-05-07 21:34 34.95768 -89.28653 2966 ft 92 kts 269°
2026-05-07 21:34 34.95704 -89.29431 2831 ft 92 kts 268°
2026-05-07 21:34 34.95643 -89.30208 2693 ft 93 kts 268°
2026-05-07 21:35 34.95564 -89.31003 2544 ft 94 kts 268°
2026-05-07 21:35 34.95509 -89.31812 2540 ft 95 kts 270°
2026-05-07 21:35 34.95475 -89.32623 2564 ft 96 kts 271°
2026-05-07 21:35 34.95462 -89.33429 2574 ft 95 kts 276°
2026-05-07 21:36 34.95494 -89.34236 2579 ft 96 kts 274°
2026-05-07 21:36 34.95503 -89.35058 2573 ft 97 kts 269°
2026-05-07 21:36 34.95212 -89.35769 2606 ft 99 kts 222°
2026-05-07 21:36 34.94550 -89.36006 2620 ft 100 kts 179°
2026-05-07 21:37 34.93849 -89.36028 2610 ft 103 kts 195°
2026-05-07 21:37 34.93327 -89.36547 2596 ft 99 kts 252°
2026-05-07 21:37 34.93386 -89.37332 2570 ft 95 kts 308°
2026-05-07 21:37 34.93942 -89.37687 2581 ft 92 kts 356°
2026-05-07 21:38 34.94562 -89.37702 2641 ft 88 kts
2026-05-07 21:38 34.95184 -89.37672 2634 ft 90 kts 356°
2026-05-07 21:38 34.95725 -89.38013 2619 ft 93 kts 309°
2026-05-07 21:38 34.95835 -89.38794 2592 ft 99 kts 254°
2026-05-07 21:39 34.95338 -89.39369 2574 ft 105 kts 198°
2026-05-07 21:39 34.94617 -89.39373 2596 ft 103 kts 180°
2026-05-07 21:39 34.93893 -89.39379 2588 ft 104 kts 190°
2026-05-07 21:39 34.93294 -89.39801 2569 ft 102 kts 238°
2026-05-07 21:40 34.93152 -89.40608 2567 ft 96 kts 288°
2026-05-07 21:40 34.93573 -89.41186 2549 ft 94 kts 341°
2026-05-07 21:40 34.94214 -89.41193 2571 ft 91 kts
2026-05-07 21:40 34.94858 -89.41156 2560 ft 93 kts
2026-05-07 21:41 34.95496 -89.41092 2578 ft 92 kts
2026-05-07 21:41 34.96128 -89.41155 2564 ft 93 kts 338°
2026-05-07 21:41 34.96664 -89.41616 2558 ft 94 kts 322°
2026-05-07 21:41 34.97148 -89.42146 2568 ft 93 kts 319°
2026-05-07 21:42 34.97625 -89.42670 2565 ft 93 kts 322°
2026-05-07 21:42 34.98141 -89.43159 2573 ft 93 kts 327°
2026-05-07 21:42 34.98674 -89.43591 2572 ft 93 kts 324°
2026-05-07 21:42 34.99199 -89.44054 2579 ft 92 kts 328°
2026-05-07 21:43 34.99725 -89.44509 2584 ft 93 kts 316°
2026-05-07 21:43 35.00018 -89.45225 2586 ft 94 kts 286°
2026-05-07 21:43 35.00062 -89.46030 2585 ft 96 kts 274°
2026-05-07 21:43 35.00049 -89.46845 2581 ft 97 kts 273°
2026-05-07 21:44 35.00055 -89.47669 2574 ft 97 kts 277°
2026-05-07 21:44 35.00085 -89.48489 2567 ft 97 kts 274°
2026-05-07 21:44 35.00085 -89.49312 2555 ft 97 kts 277°
2026-05-07 21:44 35.00113 -89.50137 2547 ft 97 kts 272°
2026-05-07 21:45 35.00064 -89.50964 2526 ft 97 kts 268°
2026-05-07 21:45 34.99976 -89.51792 2506 ft 98 kts 265°
2026-05-07 21:45 34.99873 -89.52618 2482 ft 99 kts 265°
2026-05-07 21:45 34.99781 -89.53457 2453 ft 99 kts 269°
2026-05-07 21:46 34.99714 -89.54287 2461 ft 96 kts 268°
2026-05-07 21:46 34.99638 -89.55103 2445 ft 97 kts 267°
2026-05-07 21:46 34.99551 -89.55913 2455 ft 95 kts 267°
2026-05-07 21:46 34.99463 -89.56714 2439 ft 96 kts 266°
2026-05-07 21:47 34.99416 -89.57503 2482 ft 90 kts 276°
2026-05-07 21:47 34.99438 -89.58275 2472 ft 93 kts 278°
2026-05-07 21:47 34.99479 -89.59074 2499 ft 93 kts 278°
2026-05-07 21:47 34.99523 -89.59877 2496 ft 95 kts 278°
2026-05-07 21:48 34.99559 -89.60686 2519 ft 94 kts 278°
2026-05-07 21:48 34.99608 -89.61481 2526 ft 95 kts 278°
2026-05-07 21:48 34.99626 -89.62297 2537 ft 95 kts 272°
2026-05-07 21:48 34.99593 -89.63093 2502 ft 93 kts 270°
2026-05-07 21:49 34.99556 -89.63892 2406 ft 94 kts 272°
2026-05-07 21:49 34.99531 -89.64677 2315 ft 94 kts 271°
2026-05-07 21:49 34.99519 -89.65476 2195 ft 92 kts 272°
2026-05-07 21:49 34.99490 -89.66260 2061 ft 92 kts 269°
2026-05-07 21:50 34.99424 -89.67046 1898 ft 94 kts 267°
2026-05-07 21:50 34.99369 -89.67841 1747 ft 94 kts 268°
2026-05-07 21:50 34.99306 -89.68635 1596 ft 94 kts 267°
2026-05-07 21:50 34.99269 -89.69421 1482 ft 90 kts 272°
2026-05-07 21:51 34.99272 -89.70167 1446 ft 89 kts 274°
2026-05-07 21:51 34.99280 -89.70931 1450 ft 90 kts 272°
2026-05-07 21:51 34.99273 -89.71707 1459 ft 91 kts 273°
2026-05-07 21:51 34.99268 -89.72475 1478 ft 88 kts 270°
2026-05-07 21:52 34.99241 -89.73218 1484 ft 88 kts 269°
2026-05-07 21:52 34.99155 -89.73962 1501 ft 89 kts 249°
2026-05-07 21:52 34.98752 -89.74549 1498 ft 92 kts 223°
2026-05-07 21:52 34.98287 -89.75085 1477 ft 91 kts 232°
2026-05-07 21:53 34.97870 -89.75697 1437 ft 92 kts 236°
2026-05-07 21:53 34.97348 -89.76162 1393 ft 99 kts 198°
2026-05-07 21:53 34.96670 -89.76184 1406 ft 90 kts 176°
2026-05-07 21:53 34.96079 -89.76127 1335 ft 86 kts 176°
2026-05-07 21:54 34.95504 -89.76185 1245 ft 82 kts 212°
2026-05-07 21:54 34.95161 -89.76670 1151 ft 74 kts 261°
2026-05-07 21:54 34.95157 -89.77282 1027 ft 74 kts 276°
2026-05-07 21:54 34.95165 -89.77911 941 ft 70 kts 281°
2026-05-07 21:55 34.95382 -89.78364 869 ft 59 kts 327°
2026-05-07 21:55 34.95768 -89.78583 763 ft 61 kts 343°
2026-05-07 21:55 34.96190 -89.78644 641 ft 60 kts 355°
2026-05-07 21:55 34.96601 -89.78664 524 ft 59 kts 357°
2026-05-07 21:56 34.97005 -89.78674 427 ft 55 kts 359°
2026-05-07 21:56 34.97336 -89.78678 392 ft 38 kts
2026-05-07 21:56 34.97558 -89.78679 397 ft 24 kts 359°
2026-05-07 21:56 34.97606 -89.78735 399 ft 9 kts 271°
2026-05-07 21:57 34.97606 -89.78775 399 ft 0 kts 272°
2026-05-07 21:57 34.97606 -89.78777 399 ft 0 kts 271°
2026-05-07 21:58 34.97606 -89.78799 399 ft 7 kts 268°
2026-05-07 21:58 34.97606 -89.78873 400 ft 9 kts 268°
2026-05-07 21:58 34.97648 -89.78910 401 ft 8 kts
2026-05-07 21:58 34.97685 -89.78930 402 ft 4 kts 258°
2026-05-07 21:59 34.97665 -89.78941 402 ft 2 kts 177°
2026-05-07 21:59 34.97664 -89.78941 402 ft 0 kts 176°
2026-05-07 21:59 34.97663 -89.78941 402 ft 0 kts 179°
2026-05-07 21:59 34.97662 -89.78941 402 ft 0 kts 178°